Weather History for VAAH - December, 2012

Change the Weather History Date:

Wednesday, December 5, 2012

  Actual Average Record
Temperature  
Mean Temperature 76 °F -  
Max Temperature 87 °F 80 °F 93 °F (2008)
Min Temperature 64 °F 55 °F 51 °F (1998)
Cooling Degree Days 10    
Growing Degree Days 26 (Base 50)    
Moisture  
Dew Point 55 °F    
Average Humidity 51    
Maximum Humidity 77    
Minimum Humidity 23    
Precipitation  
Precipitation 0.00 in 0.01 in - ()
Sea Level Pressure  
Sea Level Pressure 29.92 in    
Wind  
Wind Speed 5 mph ()    
Max Wind Speed 12 mph    
Max Gust Speed -    
Visibility 2.7 miles    
Events      
Averages and records for this station are not official NWS values.
T = Trace of Precipitation, MM = Missing Value Source: Averaged Metar Reports

Daily Weather History Graph

Daily Weather History Graph

Search for Another Location

Airport or City:

Trip Planner

Search our weather history database for the weather conditions in past years. The results will help you decide how hot, cold, wet, or windy it might be!

Date:

Astronomy

Dec. 05, 2012 Rise Set
Actual Time 7:06 AM IST 5:53 PM IST
Civil Twilight 6:42 AM IST 6:18 PM IST
Nautical Twilight 6:14 AM IST 6:45 PM IST
Astronomical Twilight 5:46 AM IST 7:13 PM IST
Moon 11:44 PM IST (12/5) 11:43 AM IST (12/5)
Length of Visible Light 11h 35m
Length of Day
10h 47m
Waning Gibbous, 64% of the Moon is Illuminated
Dec 5
Waning Gibbous
Dec 6
Last Quarter
Dec 13
New
Dec 20
First Quarter
Dec 28
Full

Hourly Weather History & Observations

Time (IST) Temp. Heat Index Dew Point Humidity Pressure Visibility Wind Dir Wind Speed Gust Speed Precip Events Conditions
12:10 AM 69.8 °F - 57.2 °F 64% 29.92 in 2.5 mi NE 3.5 mph - N/A   Haze
12:40 AM 69.8 °F - 57.2 °F 64% 29.92 in 2.5 mi NE 3.5 mph - N/A   Haze
1:10 AM 68.0 °F - 55.4 °F 64% 29.92 in 2.5 mi NE 3.5 mph - N/A   Haze
1:40 AM 66.2 °F - 55.4 °F 68% 29.92 in 2.5 mi NE 3.5 mph - N/A   Haze
2:10 AM 66.2 °F - 55.4 °F 68% 29.92 in 2.5 mi NNE 3.5 mph - N/A   Haze
2:30 AM 69 °F - 60 °F 65% 29.92 in 2 mi ENE 2.3 mph - -  
2:40 AM 66.2 °F - 55.4 °F 68% 29.89 in 2.5 mi NE 3.5 mph - N/A   Haze
3:10 AM 68.0 °F - 55.4 °F 64% 29.89 in 2.5 mi NE 3.5 mph - N/A   Haze
3:40 AM 68.0 °F - 55.4 °F 64% 29.89 in 2.5 mi NE 3.5 mph - N/A   Haze
4:10 AM 68.0 °F - 57.2 °F 68% 29.89 in 2.5 mi NE 4.6 mph - N/A   Haze
4:40 AM 68.0 °F - 57.2 °F 68% 29.89 in 2.5 mi ENE 4.6 mph - N/A   Haze
5:10 AM 66.2 °F - 57.2 °F 73% 29.92 in 2.5 mi NE 3.5 mph - N/A   Haze
5:30 AM 68 °F - 57 °F 60% 29.93 in 2 mi NE 4.6 mph - -  
5:40 AM 64.4 °F - 57.2 °F 77% 29.92 in 2.5 mi NE 3.5 mph - N/A   Haze
6:10 AM 66.2 °F - 55.4 °F 68% 29.92 in 2.2 mi ENE 4.6 mph - N/A   Haze
6:40 AM 66.2 °F - 55.4 °F 68% 29.92 in 2.2 mi ENE 4.6 mph - N/A   Haze
7:40 AM 68.0 °F - 55.4 °F 64% 29.95 in 1.6 mi East 9.2 mph - N/A   Haze
8:30 AM 70 °F - 59 °F 59% 29.98 in 2 mi East 4.6 mph - -   Haze
8:40 AM 71.6 °F - 55.4 °F 57% 29.98 in 1.6 mi East 10.4 mph - N/A   Haze
9:40 AM 75.2 °F - 55.4 °F 50% 29.98 in 2.2 mi ENE 10.4 mph - N/A   Haze
11:10 AM 82.4 °F 82.0 °F 57.2 °F 42% 29.98 in 3.1 mi ENE 8.1 mph - N/A   Smoke
11:30 AM 83 °F - 59 °F 34% 29.99 in 2 mi NE 3.5 mph - -   Clear
11:40 AM 84.2 °F 83.0 °F 55.4 °F 37% 29.98 in 3.7 mi ENE 9.2 mph - N/A   Unknown
12:10 PM 84.2 °F 83.0 °F 55.4 °F 37% 29.95 in 3.7 mi ENE 9.2 mph - N/A   Unknown
12:40 PM 86.0 °F 84.5 °F 55.4 °F 35% 29.92 in 3.7 mi East 10.4 mph - N/A   Unknown
1:10 PM 87.8 °F 85.7 °F 53.6 °F 31% 29.92 in 3.7 mi ENE 11.5 mph - N/A   Unknown
1:40 PM 87.8 °F - 51.8 °F 29% 29.89 in 3.7 mi ENE 11.5 mph - N/A   Unknown
2:10 PM 87.8 °F 85.7 °F 53.6 °F 31% 29.89 in 3.7 mi NE 11.5 mph - N/A   Unknown
2:30 PM 87 °F - 55 °F 24% 29.92 in 2 mi NE 9.2 mph - -   Clear
2:40 PM 87.8 °F 85.7 °F 53.6 °F 31% 29.89 in 3.7 mi NNE 11.5 mph - N/A   Unknown
3:10 PM 89.6 °F - 51.8 °F 27% 29.86 in 3.7 mi East 11.5 mph - N/A   Unknown
3:40 PM 87.8 °F - 51.8 °F 29% 29.86 in 3.7 mi East 10.4 mph - N/A   Unknown
4:10 PM 87.8 °F - 50.0 °F 27% 29.86 in 3.7 mi East 11.5 mph - N/A   Unknown
4:40 PM 87.8 °F - 50.0 °F 27% 29.86 in 3.7 mi NE 11.5 mph - N/A   Unknown
5:10 PM 86.0 °F - 51.8 °F 31% 29.86 in 3.7 mi East 9.2 mph - N/A   Unknown
5:30 PM 83 °F - 51 °F 23% 29.90 in 2 mi East 9.2 mph - -   Clear
6:10 PM 82.4 °F - 51.8 °F 35% 29.86 in 2.5 mi East 4.6 mph - N/A   Smoke
8:10 PM 71.6 °F - 53.6 °F 53% 29.92 in 2.5 mi NNE 4.6 mph - N/A   Smoke
8:30 PM 72 °F - 60 °F 56% 29.95 in 2 mi North 3.5 mph - -   Haze
8:40 PM 71.6 °F - 53.6 °F 53% 29.92 in 2.5 mi NE 3.5 mph - N/A   Smoke
9:40 PM 69.8 °F - 55.4 °F 60% 29.95 in 2.5 mi Variable 2.3 mph - N/A   Smoke
10:10 PM 69.8 °F - 53.6 °F 56% 29.95 in 2.5 mi NE 4.6 mph - N/A   Smoke
10:40 PM 68.0 °F - 53.6 °F 60% 29.95 in 2.5 mi NE 4.6 mph - N/A   Smoke
11:10 PM 66.2 °F - 53.6 °F 64% 29.95 in 2.5 mi NE 4.6 mph - N/A   Smoke
11:30 PM 72 °F - 57 °F 49% 29.97 in 2 mi North 5.8 mph - -   Haze
11:40 PM 69.8 °F - 51.8 °F 53% 29.95 in 2.5 mi ENE 4.6 mph - N/A   Smoke